User: anonymous
Location: Innerarity Island Observatory
(30.3139°N, 87.4867°W)
Time: 16:35:16
(UTC-05:00)
Language:

OPAL - Orbit

View from above orbital plane
View from above orbital plane
View from above satellite
View from above satellite

Ground track
Ground track

The orbit data is extracted from the following two-line orbital elements,

1 26063U 00004C   14294.02930754  .00000378  00000-0  14820-3 0   910
2 26063 100.2259 103.3269 0036945 162.6680 197.5770 14.36418781772092
Epoch (UTC): 21 October 2014 00:42:12
Eccentricity: 0.0036945
inclination: 100.2259°
perigee height: 744 km
apogee height: 797 km
right ascension of ascending node: 103.3269°
argument of perigee: 162.6680°
revolutions per day: 14.36418781
mean anomaly at epoch: 197.5770°
orbit number at epoch: 77209

The dashed part of the orbit path shows where the satellite is in the earth's shadow,  

DLR